Regional Weather Roundup
Issued by NWS

Home | Current Version | Previous Version | Graphics & Text | Print | Product List | Glossary On
Versions: 1 2 3 4 5 6 7 8 9 10 11 12 13 14 15 16 17 18 19 20 21 22 23 24 25 26 27 28 29 30 31 32 33 34 35 36 37 38 39 40 41 42 43 44 45 46 47 48 49 50
000
ASUS43 KFSD 230610
RWRSD

WEATHER ROUNDUP FOR SOUTH DAKOTA
NATIONAL WEATHER SERVICE SIOUX FALLS SD
100 AM CDT FRI JUN 23 2017

NOTE: "FAIR" INDICATES FEW OR NO CLOUDS BELOW 12,000 FEET WITH NO
SIGNIFICANT WEATHER AND/OR OBSTRUCTIONS TO VISIBILITY.


SDZ001>005-009-010-012>017-230700-
NORTHWEST AND NORTH CENTRAL SOUTH DAKOTA

CITY           SKY/WX    TMP DP  RH WIND       PRES   REMARKS
BUFFALO          N/A     54  43  66 NW24G37   30.06R
FAITH            N/A     54  43  66 NW21G28   30.03R
MOBRIDGE       CLEAR     62  41  46 NW21      29.92R
$$

SDZ012>016-024>037-041>051-057-063-072>074-230700-
SOUTHWEST AND SOUTH CENTRAL SOUTH DAKOTA

CITY           SKY/WX    TMP DP  RH WIND       PRES   REMARKS
RAPID CTY ARPT MOCLDY    59  34  39 N22G33    30.10R
PIERRE         CLEAR     61  42  49 NW16      29.93R
CUSTER         LGT RAIN  54  29  38 N9G20     30.16R
ELLSWORTH AFB  MOCLDY    60  35  38 N23G30    30.11R
PHILIP         PTCLDY    63  35  35 N18       30.01R
PINE RIDGE     CLOUDY    59  40  49 E5        30.05S
SPEARFISH      FAIR      55  34  44 NW13      30.19R
WINNER         FAIR      58  44  60 SW5       29.97R
$$

SDZ004>011-016>023-039-040-230700-
NORTHEAST SOUTH DAKOTA

CITY           SKY/WX    TMP DP  RH WIND       PRES   REMARKS
ABERDEEN       CLEAR     61  39  44 NW15G23   29.85R
WATERTOWN      CLEAR     56  53  90 W8        29.83S
BROOKINGS      CLEAR     58  51  78 W3        29.85R
SISSETON         N/A     63  43  48 W12       29.78R
$$

SDZ017-020-022-023-036>040-048>070-230700-
SOUTHEAST SOUTH DAKOTA

CITY           SKY/WX    TMP DP  RH WIND       PRES   REMARKS
SIOUX FALLS    CLEAR     56  53  90 CALM      29.85R
HURON          CLEAR     56  53  90 W7        29.87R
CHAMBERLAIN    CLEAR     62  47  59 CALM      29.93R
MITCHELL       CLEAR     61  48  62 W8        29.87R
YANKTON        CLOUDY    61  52  72 SW5       29.87R
$$

ABBREVIATIONS USED IN REMARKS
   TC - TEMPERATURE IN CELSIUS
  WCI - WIND CHILL INDEX
   HX - HEAT INDEX
  VSB - VISIBILITY





USA.gov is the U.S. government's official web portal to all federal, state and local government web resources and services.